Tracking 28514 objects as of 24-Feb-2024
HD Live streaming from Space Station
objects crossing your sky now

STARLINK-5632

Track STARLINK-5632 now!
10-day predictions
STARLINK-5632 is classified as:


NORAD ID: 55400
Int'l Code: 2023-014K
Perigee: 577.2 km
Apogee: 581.1 km
Inclination: 70.0 °
Period: 96.1 minutes
Semi major axis: 6950 km
RCS: Unknown
Launch date: January 31, 2023
Source: United States (US)
Launch site: AIR FORCE WESTERN TEST RANGE (AFWTR)
Your satellite tracking list
Your tracking list is empty




NASA's NSSDC Master Catalog

Two Line Element Set (TLE):
1 55400U 23014K   24054.57196842  .00000153  00000-0  20613-4 0  9996
2 55400  70.0005 143.1798 0002819 268.2792  91.8045 14.98336294 60447
Source of the keplerian elements: AFSPC